一网星座-0521星 (ONEWEB-0521 )

导读 | 星芒AI

ONEWEB-0521 是 OneWeb 卫星星座计划中的一颗低轨通信卫星,旨在为全球提供高速互联网服务。该卫星采用标准化设计,具备高容量和高可靠性,支持偏远地区和航空、航海等移动通信需求。作为 OneWeb 低轨卫星网络的重要组成部分,ONEWEB-0521 有助于提升全球网络覆盖,推动数字包容。该卫星由阿丽亚娜航天公司发射,是 OneWeb 恢复运营并扩展其全球通信能力的关键一环。

基本信息
目录编号:
54139
目录名称:
ONEWEB-0521
国际标识:
2022-138AC
轨道中心:
EARTH
卫星名称:
一网星座-0521星
卫星全名:
一网星座-0521星 (ONEWEB-0521 )
卫星状态:
在轨 (已飞行1150 天)
发射日期:
2022-10-22 UTC
国别 :
英国 (GB)
星等 :
--
轨道信息
数据来源 国际轨道数据 AOE轨道数据
星历时间 2025-12-15T06:16:38+0800
20小时前
查看轨道信息
2025-12-12T06:00:00+0800
3天前
查看轨道信息
半长轴 7563.907km 7563.91km
偏心率 0.000186 0.0001742
轨道倾角 87.921° 87.922°
近地点辐角 95.486° 92.686°
升交点赤经 341.604° 342.205°
平近点角 264.648° 7.761°
近地点 1184.365km 1184.457km
远地点 1187.179km 1187.093km
周期 109.114分钟 109.114分钟
每日圈数 13.197253 13.197246
详细信息
平衡模式:
三轴稳定
覆盖范围:
全球
运营商:
一网卫星公司
运营商所在国:
英国
制造商(研发单位):
一网卫星公司
制造商所在国:
英国
使用方式:
暂无
卫星简介
OneWeb卫星网络由648颗重约125公斤的微型卫星组成,运行在1200公里的轨道上。 每颗卫星都能够提供至少每秒8千兆位的吞吐量,以使用其高吞吐量的Ku频段有效载荷为家庭和移动平台提供互联网接入。该卫星仍在工作。
2D轨道图
3D轨道图
轨道高度分析图
轨道倾角分析图
轨道综合分析图
查看轨道综合分析图